[[{"header":{"parameterUnit":"m.s-1","parameterCategory":1,"la1":30.2991,"la2":30.254,"lo1":-89.0895,"lo2":-89.0444,"dy":0.0017,"dx":0.0017,"nx":28,"ny":28,"refTime":"2023-10-02T21:00:00:Z","depth":0,"parameterNumber":2,"parameterNumberName":"U-component_of_WINDS"},"data":[0,0,0,0,0,0,0,0,0,0,0,0,0,0,0,0,0,0,0,0,0,0,0,0,0,0,0,0,0,0,0,0,0,0,0,0,0,0,0,0,0,0,0,0,0,0,0,0,0,0,0,0,0,0,0,0,0,0,-2.8277,-2.8277,0,-2.8245,-2.8245,-2.8245,-2.8103,-2.81,-2.8097,-2.8093,-2.8063,-2.8066,-2.8068,0,0,0,0,0,0,0,0,0,0,0,0,0,-2.8218,-2.822,-2.8278,-2.8277,-2.8277,-2.8246,-2.8245,-2.8245,-2.8104,-2.81,-2.8096,-2.8092,-2.8063,-2.8065,-2.8068,0,0,0,0,0,0,0,0,0,0,0,0,0,-2.8221,-2.8221,-2.8278,-2.8203,-2.8196,-2.8246,-2.8245,-2.8245,-2.8105,-2.81,-2.8095,-2.809,-2.8062,-2.8065,-2.8068,-2.8189,0,0,-2.8079,-2.808,0,0,0,0,0,0,0,0,-2.8221,-2.8224,-2.8214,-2.8208,-2.82,-2.8173,-2.8213,-2.8226,-2.8106,-2.8139,-2.8093,-2.8088,-2.8104,-2.8104,-2.8109,-2.8188,-2.8186,-2.8079,-2.8081,-2.8083,-2.8084,0,0,0,0,0,0,0,-2.8221,-2.8224,-2.8265,-2.8214,-2.8206,-2.8171,-2.8166,-2.8215,-2.815,-2.8136,-2.8126,-2.8124,-2.8099,-2.8106,-2.8107,-2.8186,-2.8079,-2.8082,-2.8084,-2.8086,-2.8362,-2.8367,0,0,0,0,0,0,-2.8231,-2.8225,-2.8266,-2.8264,-2.8198,-2.8176,-2.817,-2.8187,-2.8149,-2.8138,-2.8128,-2.8117,-2.8102,-2.8103,-2.8105,-2.8244,-2.8083,-2.8086,-2.8088,-2.8356,-2.8363,-2.8368,0,0,0,0,0,0,-2.8231,-2.8236,-2.8267,-2.8242,-2.8243,-2.8182,-2.8202,-2.8189,-2.8195,-2.8143,-2.8131,-2.8146,-2.8098,-2.8101,-2.8169,-2.8241,-2.8087,-2.8091,-2.835,-2.8358,-2.8366,-2.8522,0,0,0,0,0,0,-2.8229,-2.8237,-2.8282,-2.8244,-2.8245,-2.8331,-2.8206,-2.8192,-2.8201,-2.8187,-2.8157,-2.8147,-2.8095,-2.8165,-2.8172,-2.8243,-2.8093,-2.8343,-2.8354,-2.8363,-2.851,-2.8534,-2.8555,0,0,0,0,0,-2.8228,-2.8328,-2.8285,-2.829,-2.8299,-2.8336,-2.8336,-2.8273,-2.8207,-2.8252,-2.8219,-2.8148,-2.8232,-2.8173,-2.818,-2.8253,-2.8339,-2.8351,-2.8362,-2.85,-2.8529,-2.8554,0,0,0,0,0,0,-2.8377,-2.8321,-2.8273,-2.8363,-2.8355,-2.8312,-2.8366,-2.8306,-2.8317,-2.8303,-2.8225,-2.822,-2.83,-2.8283,-2.8218,-2.8367,-2.8273,-2.8287,-2.8375,-2.8403,-2.8425,-2.8427,-2.8096,0,0,0,0,0,-2.842,-2.8454,-2.8403,-2.8488,-2.8486,-2.8428,-2.8441,-2.8393,-2.8381,-2.8377,-2.8349,-2.8341,-2.8365,-2.8383,-2.8402,-2.8507,-2.8498,-2.856,-2.8583,-2.8601,-2.8614,-2.8668,-2.8695,-2.8407,-2.8407,-2.8407,0,0,-2.851,-2.8484,-2.851,-2.8517,-2.8505,-2.8542,-2.8425,-2.8469,-2.8496,-2.8384,-2.8447,-2.8426,-2.8412,-2.8499,-2.8536,-2.8487,-2.8692,-2.8616,-2.8632,-2.8635,-2.8683,-2.8711,-2.8735,-2.8416,-2.8414,-2.8413,0,0,-2.8693,-2.8676,-2.8744,-2.8735,-2.8717,-2.8677,-2.8694,-2.866,-2.8641,-2.8702,-2.8619,-2.865,-2.8694,-2.8687,-2.869,-2.887,-2.8805,-2.8878,-2.8995,-2.9049,-2.9071,-2.9091,-2.9155,-2.9179,-2.8891,-2.8892,-2.8892,0,-2.8807,-2.8858,-2.8788,-2.8837,-2.8842,-2.8742,-2.8811,-2.8805,-2.8796,-2.8802,-2.8748,-2.88,-2.8784,-2.8868,-2.8912,-2.8917,-2.8934,-2.8881,-2.9073,-2.9093,-2.911,-2.917,-2.9195,-2.8901,-2.89,-2.8899,-2.8898,0,-2.8999,-2.9036,-2.9094,-2.9086,-2.9098,-2.9157,-2.9096,-2.9117,-2.9068,-2.9034,-2.9098,-2.9075,-2.9088,-2.9104,-2.9057,-2.9182,-2.9152,-2.9087,-2.8991,-2.9148,-2.9203,-2.9226,-2.8914,-2.891,-2.8908,-2.8905,0,0,-2.9276,-2.9227,-2.925,-2.9245,-2.9218,-2.9246,-2.93,-2.9312,-2.9331,-2.9328,-2.9372,-2.9411,-2.9351,-2.9354,-2.9305,-2.9352,-2.9496,-2.9281,-2.9279,-2.9322,-2.9632,-2.9682,-2.9709,-2.9453,-2.9457,-2.9461,-2.9633,0,-2.945,-2.9539,-2.9477,-2.9577,-2.961,-2.9515,-2.9562,-2.9552,-2.9522,-2.9546,-2.9513,-2.9541,-2.9459,-2.946,-2.9503,-2.947,-2.9557,-2.9456,-2.9494,-2.9496,-2.9501,-2.9738,-2.979,-2.9955,-2.9654,-2.9658,-2.9661,0,-2.9665,-2.967,-2.9773,-2.9739,-2.9751,-2.9795,-2.98,-2.9824,-2.9811,-2.9785,-2.9789,-2.9728,-2.9779,-2.9685,-2.9756,-2.9688,-2.97,-2.9686,-2.9691,-2.9692,-2.9588,-2.9746,-3.0005,-3.003,-2.9694,-2.9691,-2.9689,0,-2.9856,-2.9889,-2.9954,-2.9953,-2.9915,-2.9948,-2.9934,-2.9915,-2.9926,-2.9931,-2.9938,-2.995,-2.9956,-2.9967,-2.9911,-2.9848,-2.9989,-2.989,-2.997,-2.9972,-3.0005,-3.0004,-3.027,-3.0013,-3.0012,-3.0012,-3.0011,0,-3.0057,-3.0124,-3.004,-3.008,-3.0153,-3.0081,-3.0154,-3.013,-3.0114,-3.0149,-3.0068,-3.0102,-3.0026,-3.0053,-3.001,-3.0075,-3.0079,-3.0061,-3.0048,-3.0068,-3.0071,-3.0075,-3.0062,-3.0018,-3.0017,-3.0016,-3.0014,0,-3.0283,-3.0229,-3.0294,-3.0253,-3.0244,-3.0299,-3.0263,-3.03,-3.0264,-3.0309,-3.0315,-3.026,-3.0287,-3.0232,-3.0253,-3.0224,-3.0316,-3.0286,-3.0321,-3.0312,-3.0395,-3.0388,-3.0674,-3.0708,-3.0429,-3.0432,-3.0434,0,-3.0414,-3.0463,-3.0427,-3.0444,-3.0434,-3.0462,-3.0472,-3.0403,-3.0418,-3.0405,-3.0444,-3.0464,-3.0477,-3.0526,-3.0488,-3.0503,-3.0473,-3.0572,-3.0475,-3.0493,-3.0475,-3.0473,-3.0477,-3.0592,-3.0595,-3.0598,-3.06,0,-3.0654,-3.0625,-3.0642,-3.0651,-3.0665,-3.0669,-3.0667,-3.0685,-3.0612,-3.0633,-3.0659,-3.0669,-3.0689,-3.0711,-3.0718,-3.0704,-3.0641,-3.0631,-3.0651,-3.0671,-3.069,-3.0681,-3.0375,-3.0625,-3.0623,-3.0621,-3.0619,-3.0618,-3.0837,-3.0876,-3.0856,-3.0878,-3.0869,-3.0869,-3.0901,-3.0868,-3.0889,-3.0899,-3.0857,-3.0894,-3.0878,-3.088,-3.0873,-3.0901,-3.0857,-3.0885,-3.0892,-3.0901,-3.0914,-3.0685,-3.0902,-3.0901,-3.0901,-3.09,-3.0899,0,-3.1073,-3.1055,-3.1076,-3.1075,-3.1093,-3.103,-3.1024,-3.1043,-3.1076,-3.1066,-3.108,-3.1111,-3.1132,-3.1095,-3.111,-3.114,-3.1111,-3.1146,-3.1143,-3.1141,-3.0953,-3.0934,-3.1169,-3.1169,-3.1169,-3.1169,-3.1169,-3.1169,-3.1198,-3.126,-3.1229,-3.1286,-3.1268,-3.1302,-3.1304,-3.1303,-3.1295,-3.1333,-3.1349,-3.1325,-3.1305,-3.1317,-3.1334,-3.1322,-3.1332,-3.1377,-3.1356,-3.1181,-3.1155,-3.113,-3.1112,-3.138,-3.138,-3.1542,-3.1544,-3.1545]},{"header":{"parameterUnit":"m.s-1","parameterCategory":1,"la1":30.2991,"la2":30.254,"lo1":-89.0895,"lo2":-89.0444,"dy":0.0017,"dx":0.0017,"nx":28,"ny":28,"refTime":"2023-10-02T21:00:00:Z","depth":0,"parameterNumber":3,"parameterNumberName":"V-component_of_WINDS"},"data":[0,0,0,0,0,0,0,0,0,0,0,0,0,0,0,0,0,0,0,0,0,0,0,0,0,0,0,0,0,0,0,0,0,0,0,0,0,0,0,0,0,0,0,0,0,0,0,0,0,0,0,0,0,0,0,0,0,0,0.2096,0.2096,0,0.2038,0.2037,0.2036,0.2015,0.2015,0.2015,0.2016,0.195,0.1948,0.1946,0,0,0,0,0,0,0,0,0,0,0,0,0,0.2186,0.2185,0.2096,0.2096,0.2095,0.2038,0.2037,0.2036,0.2015,0.2015,0.2015,0.2016,0.1951,0.1948,0.1946,0,0,0,0,0,0,0,0,0,0,0,0,0,0.2139,0.2184,0.2097,0.2078,0.2075,0.2038,0.2037,0.2036,0.2015,0.2015,0.2015,0.2016,0.1952,0.1949,0.1946,0.1921,0,0,0.1937,0.1936,0,0,0,0,0,0,0,0,0.2142,0.2136,0.2081,0.2079,0.2076,0.2034,0.2045,0.1997,0.2015,0.2038,0.2016,0.2016,0.1977,0.1972,0.1961,0.1918,0.1915,0.1937,0.1935,0.1934,0.1933,0,0,0,0,0,0,0,0.2145,0.2138,0.2073,0.208,0.2077,0.2071,0.2064,0.2035,0.2006,0.2036,0.2034,0.2028,0.1976,0.1963,0.1959,0.1915,0.1937,0.1934,0.1932,0.1931,0.185,0.1849,0,0,0,0,0,0,0.2152,0.2141,0.2075,0.2071,0.2111,0.2069,0.2062,0.2047,0.2007,0.2001,0.2027,0.2027,0.1968,0.1962,0.1956,0.1925,0.1934,0.1931,0.1929,0.185,0.185,0.1849,0,0,0,0,0,0,0.2154,0.2146,0.2077,0.2106,0.2096,0.2067,0.2051,0.2046,0.2033,0.2,0.1995,0.202,0.1968,0.1961,0.1931,0.1923,0.193,0.1927,0.1851,0.185,0.1849,0.1863,0,0,0,0,0,0,0.2157,0.2147,0.2139,0.2106,0.2095,0.2054,0.205,0.2044,0.2029,0.2027,0.1992,0.1986,0.1968,0.1935,0.1928,0.1919,0.1925,0.1851,0.185,0.185,0.1863,0.1863,0.1863,0,0,0,0,0,0.216,0.2143,0.2138,0.213,0.2084,0.2053,0.2047,0.2028,0.2028,0.2019,0.1998,0.1987,0.1925,0.1932,0.1924,0.1914,0.1851,0.185,0.185,0.1863,0.1863,0.1863,0,0,0,0,0,0,0.2174,0.2139,0.2133,0.2105,0.2083,0.205,0.2037,0.2028,0.2003,0.2003,0.1979,0.1971,0.1943,0.1925,0.1934,0.1888,0.1888,0.1885,0.1901,0.19,0.19,0.1904,0.1922,0,0,0,0,0,0.2174,0.2154,0.2124,0.2102,0.2092,0.2067,0.2052,0.204,0.2015,0.2005,0.1981,0.1956,0.1931,0.1915,0.189,0.1861,0.1852,0.185,0.1849,0.185,0.1847,0.183,0.1829,0.1846,0.1846,0.1846,0,0,0.2173,0.2152,0.214,0.2105,0.2086,0.2064,0.2058,0.2035,0.2019,0.2,0.1971,0.1954,0.1924,0.1895,0.1881,0.1879,0.1841,0.1848,0.1849,0.1846,0.1829,0.1828,0.1826,0.1845,0.1845,0.1846,0,0,0.2161,0.2143,0.2124,0.2106,0.2078,0.2062,0.2057,0.2026,0.2014,0.1985,0.1971,0.195,0.1908,0.1887,0.1871,0.1853,0.1842,0.1846,0.1844,0.1828,0.1827,0.1825,0.1819,0.1817,0.1843,0.1843,0.1843,0,0.2164,0.2132,0.2114,0.2093,0.2077,0.2062,0.2042,0.2024,0.1989,0.1978,0.1978,0.1925,0.1903,0.1869,0.1865,0.1853,0.1846,0.1849,0.1829,0.1827,0.1826,0.1819,0.1816,0.1844,0.1844,0.1844,0.1844,0,0.2136,0.2114,0.2102,0.2071,0.2054,0.2033,0.2011,0.1996,0.1985,0.1968,0.1939,0.1913,0.1883,0.1874,0.1863,0.1838,0.1839,0.1834,0.1832,0.1825,0.1818,0.1815,0.1845,0.1845,0.1844,0.1844,0,0,0.2129,0.209,0.2086,0.2072,0.2041,0.2023,0.2001,0.1974,0.1961,0.1938,0.1918,0.1883,0.1879,0.1861,0.1847,0.1833,0.1821,0.183,0.1829,0.1829,0.1792,0.1795,0.1793,0.1814,0.1813,0.1813,0.1794,0,0.2113,0.2075,0.2059,0.2028,0.2008,0.1994,0.1975,0.1953,0.1937,0.1917,0.1898,0.1874,0.1871,0.186,0.1846,0.1825,0.1813,0.1826,0.1794,0.1793,0.1801,0.1789,0.1792,0.1776,0.1792,0.1791,0.1791,0,0.2088,0.2067,0.2034,0.2007,0.1998,0.1981,0.1955,0.1936,0.1911,0.19,0.1881,0.1869,0.1844,0.1846,0.1811,0.1821,0.1807,0.1795,0.1794,0.1789,0.1791,0.1783,0.177,0.1767,0.1786,0.1787,0.1787,0,0.2086,0.2049,0.2025,0.2014,0.1981,0.197,0.1955,0.1931,0.1916,0.1893,0.1882,0.1856,0.1841,0.182,0.18,0.1803,0.1768,0.1767,0.1757,0.1757,0.1749,0.1749,0.1732,0.1741,0.1742,0.1742,0.1742,0,0.2068,0.2049,0.2024,0.2009,0.1987,0.1969,0.1946,0.1931,0.191,0.1891,0.1876,0.1859,0.1834,0.1812,0.1797,0.177,0.1764,0.1753,0.1749,0.1754,0.1755,0.1744,0.1744,0.1741,0.1741,0.1741,0.1741,0,0.2062,0.2044,0.2017,0.199,0.1982,0.1967,0.1943,0.1927,0.1912,0.1888,0.1881,0.1856,0.183,0.1809,0.1774,0.1764,0.1736,0.1731,0.1745,0.1742,0.1733,0.1734,0.1707,0.1702,0.1716,0.1716,0.1716,0,0.2051,0.2036,0.2008,0.1995,0.1982,0.1961,0.1946,0.1928,0.1913,0.1884,0.1872,0.1846,0.1824,0.1783,0.176,0.1734,0.1728,0.1721,0.1724,0.173,0.1727,0.1728,0.1726,0.172,0.172,0.172,0.172,0,0.2035,0.2027,0.2007,0.1985,0.1968,0.1948,0.1928,0.1918,0.1896,0.188,0.1854,0.1838,0.1804,0.1777,0.1749,0.1733,0.1722,0.172,0.1716,0.172,0.1728,0.1723,0.1743,0.172,0.172,0.172,0.172,0.172,0.2025,0.2011,0.199,0.1968,0.1952,0.1934,0.1919,0.1902,0.1881,0.1854,0.1844,0.1818,0.1793,0.1755,0.1738,0.1717,0.1715,0.171,0.1708,0.1707,0.1707,0.1733,0.1711,0.1711,0.1711,0.1711,0.1711,0,0.2007,0.1993,0.1974,0.1948,0.193,0.1925,0.1903,0.1888,0.1866,0.1846,0.1825,0.1796,0.1771,0.1748,0.1721,0.1708,0.1703,0.1702,0.1702,0.1698,0.171,0.1716,0.1707,0.1707,0.1707,0.1707,0.1707,0.1707,0.1996,0.1973,0.1963,0.1931,0.1917,0.1893,0.1881,0.1864,0.1847,0.1816,0.1796,0.1782,0.176,0.1732,0.1708,0.1702,0.1692,0.1693,0.1685,0.1696,0.1697,0.1698,0.1703,0.1691,0.1691,0.1674,0.1674,0.1674]}]]